When you browse on this site, cookies collect data to enhance your experience and personalize the content and advertising you see.
Visit our Privacy Policy to learn more. By continuing to use the site, you agree to this use of cookies and data.

Stündliche Wetter Tysaahtelek

Heute, 13 August, Donnerstag

Zeit Temperatur Niederschläge Wind Luftdruck Luftfeuchtigkeit
00:00 +16°C° 0 mm 3 m/S 755 mmHg 83%
01:00 +16°C° 0 mm 2 m/S 755 mmHg 86%
02:00 +16°C° 0 mm 2 m/S 755 mmHg 87%
03:00 +15°C° 0 mm 2 m/S 755 mmHg 87%
04:00 +15°C° 0 mm 2 m/S 755 mmHg 88%
05:00 +16°C° 0 mm 1 m/S 755 mmHg 81%
06:00 +19°C° 0 mm 1 m/S 755 mmHg 74%
07:00 +21°C° 0 mm 1 m/S 755 mmHg 68%
08:00 +23°C° 0 mm 1 m/S 755 mmHg 62%
09:00 +25°C° 0 mm 1 m/S 754 mmHg 56%
10:00 +27°C° 0 mm 1 m/S 754 mmHg 51%
11:00 +28°C° 0 mm 1 m/S 754 mmHg 46%
12:00 +29°C° 0 mm 1 m/S 754 mmHg 41%
13:00 +30°C° 0 mm 1 m/S 754 mmHg 36%
14:00 +30°C° 0 mm 1 m/S 753 mmHg 37%
15:00 +30°C° 0 mm 1 m/S 753 mmHg 37%
16:00 +30°C° 0 mm 1 m/S 753 mmHg 37%
17:00 +27°C° 0 mm 1 m/S 753 mmHg 44%
18:00 +25°C° 0 mm 1 m/S 753 mmHg 50%
19:00 +23°C° 0 mm 1 m/S 753 mmHg 57%
20:00 +23°C° 0.1 mm 1 m/S 753 mmHg 58%
21:00 +23°C° 0.1 mm 1 m/S 753 mmHg 59%
22:00 +23°C° 0.1 mm 1 m/S 753 mmHg 60%
23:00 +22°C° 0.2 mm 1 m/S 753 mmHg 64%

Morgen, 14 August, Freitag

Zeit Temperatur Niederschläge Wind Luftdruck Luftfeuchtigkeit
00:00 +22°C° 0.2 mm 1 m/S 753 mmHg 67%
01:00 +21°C° 0.2 mm 1 m/S 753 mmHg 71%
02:00 +20°C° 0 mm 1 m/S 753 mmHg 73%
03:00 +20°C° 0 mm 1 m/S 753 mmHg 76%
04:00 +19°C° 0 mm 1 m/S 753 mmHg 78%
05:00 +20°C° 0 mm 1 m/S 753 mmHg 74%
06:00 +21°C° 0 mm 1 m/S 753 mmHg 70%
07:00 +23°C° 0 mm 1 m/S 753 mmHg 67%
08:00 +25°C° 0 mm 1 m/S 752 mmHg 61%
09:00 +25°C° 0 mm 0 m/S 752 mmHg 56%
10:00 +26°C° 0 mm 0 m/S 752 mmHg 50%
11:00 +27°C° 0 mm 0 m/S 752 mmHg 47%
12:00 +30°C° 0 mm 1 m/S 752 mmHg 43%
13:00 +31°C° 0 mm 1 m/S 751 mmHg 39%
14:00 +31°C° 0 mm 1 m/S 751 mmHg 39%
15:00 +31°C° 0 mm 1 m/S 751 mmHg 39%
16:00 +31°C° 0 mm 2 m/S 751 mmHg 38%
17:00 +29°C° 0 mm 2 m/S 751 mmHg 45%
18:00 +26°C° 0 mm 2 m/S 751 mmHg 53%
19:00 +24°C° 0 mm 1 m/S 751 mmHg 60%
20:00 +23°C° 0 mm 2 m/S 751 mmHg 64%
21:00 +21°C° 0 mm 2 m/S 751 mmHg 69%
22:00 +20°C° 0 mm 2 m/S 752 mmHg 73%
23:00 +20°C° 0 mm 2 m/S 751 mmHg 75%

übermorgen, 15 August, Samstag

Zeit Temperatur Niederschläge Wind Luftdruck Luftfeuchtigkeit
00:00 +19°C° 0 mm 2 m/S 751 mmHg 78%
01:00 +19°C° 0 mm 2 m/S 751 mmHg 80%
02:00 +18°C° 0 mm 2 m/S 751 mmHg 81%
03:00 +19°C° 0 mm 1 m/S 751 mmHg 82%
04:00 +19°C° 0 mm 1 m/S 751 mmHg 82%
05:00 +20°C° 0 mm 1 m/S 751 mmHg 77%
06:00 +21°C° 0 mm 1 m/S 751 mmHg 73%
07:00 +23°C° 0 mm 1 m/S 751 mmHg 68%
08:00 +24°C° 0 mm 1 m/S 751 mmHg 62%
09:00 +26°C° 0 mm 1 m/S 751 mmHg 57%
10:00 +28°C° 0 mm 1 m/S 751 mmHg 52%
11:00 +28°C° 0 mm 1 m/S 751 mmHg 50%
12:00 +29°C° 0 mm 2 m/S 751 mmHg 48%
13:00 +29°C° 0 mm 2 m/S 751 mmHg 47%
14:00 +29°C° 0 mm 3 m/S 751 mmHg 49%
15:00 +28°C° 0 mm 3 m/S 751 mmHg 51%
16:00 +28°C° 0 mm 3 m/S 750 mmHg 53%
17:00 +26°C° 0 mm 3 m/S 750 mmHg 58%
18:00 +25°C° 0 mm 3 m/S 751 mmHg 63%
19:00 +23°C° 0 mm 2 m/S 751 mmHg 69%
20:00 +21°C° 0.2 mm 2 m/S 751 mmHg 74%
21:00 +20°C° 0.2 mm 2 m/S 751 mmHg 79%
22:00 +19°C° 0.2 mm 2 m/S 751 mmHg 85%
23:00 +18°C° 0.3 mm 2 m/S 751 mmHg 86%

16 August, Sonntag

Zeit Temperatur Niederschläge Wind Luftdruck Luftfeuchtigkeit
00:00 +18°C° 0.3 mm 2 m/S 751 mmHg 88%
01:00 +17°C° 0.3 mm 2 m/S 751 mmHg 90%
02:00 +17°C° 0 mm 2 m/S 751 mmHg 90%
03:00 +17°C° 0 mm 2 m/S 751 mmHg 90%
04:00 +16°C° 0 mm 2 m/S 751 mmHg 90%
05:00 +18°C° 0 mm 2 m/S 752 mmHg 86%
06:00 +19°C° 0 mm 2 m/S 752 mmHg 81%
07:00 +20°C° 0 mm 2 m/S 752 mmHg 76%
08:00 +23°C° 0.1 mm 1 m/S 752 mmHg 70%
09:00 +26°C° 0.1 mm 1 m/S 752 mmHg 63%
10:00 +28°C° 0.1 mm 1 m/S 753 mmHg 56%
11:00 +28°C° 0.5 mm 1 m/S 752 mmHg 54%
12:00 +27°C° 0.5 mm 0 m/S 752 mmHg 52%
13:00 +27°C° 0.5 mm 0 m/S 752 mmHg 50%
14:00 +29°C° 0.1 mm 1 m/S 752 mmHg 51%
15:00 +29°C° 0.1 mm 1 m/S 752 mmHg 51%
16:00 +28°C° 0.1 mm 1 m/S 752 mmHg 52%
17:00 +27°C° 0.1 mm 2 m/S 752 mmHg 59%
18:00 +25°C° 0.1 mm 2 m/S 752 mmHg 66%
19:00 +23°C° 0.1 mm 2 m/S 752 mmHg 73%
20:00 +21°C° 0.1 mm 2 m/S 753 mmHg 77%
21:00 +20°C° 0.1 mm 2 m/S 753 mmHg 81%
22:00 +20°C° 0.1 mm 1 m/S 753 mmHg 85%
23:00 +19°C° 0 mm 1 m/S 753 mmHg 86%

17 August, Montag

Zeit Temperatur Niederschläge Wind Luftdruck Luftfeuchtigkeit
00:00 +19°C° 0 mm 1 m/S 753 mmHg 87%
01:00 +19°C° 0 mm 1 m/S 753 mmHg 88%
02:00 +18°C° 0 mm 1 m/S 753 mmHg 89%
03:00 +18°C° 0 mm 1 m/S 753 mmHg 89%
04:00 +18°C° 0 mm 1 m/S 753 mmHg 90%
05:00 +19°C° 0 mm 1 m/S 753 mmHg 85%
06:00 +21°C° 0 mm 1 m/S 753 mmHg 81%
07:00 +22°C° 0 mm 1 m/S 753 mmHg 76%
08:00 +23°C° 0 mm 2 m/S 753 mmHg 69%
09:00 +25°C° 0 mm 3 m/S 753 mmHg 63%
10:00 +26°C° 0 mm 3 m/S 753 mmHg 56%
11:00 +27°C° 0 mm 3 m/S 752 mmHg 54%
12:00 +28°C° 0 mm 3 m/S 752 mmHg 52%
13:00 +29°C° 0 mm 3 m/S 752 mmHg 50%
14:00 +28°C° 0 mm 3 m/S 751 mmHg 51%
15:00 +28°C° 0 mm 3 m/S 751 mmHg 52%
16:00 +28°C° 0 mm 2 m/S 751 mmHg 53%
17:00 +26°C° 0 mm 2 m/S 751 mmHg 61%
18:00 +25°C° 0 mm 2 m/S 751 mmHg 68%
19:00 +23°C° 0 mm 1 m/S 751 mmHg 75%
20:00 +22°C° 0.1 mm 1 m/S 751 mmHg 78%
21:00 +21°C° 0.1 mm 1 m/S 751 mmHg 82%
22:00 +21°C° 0.1 mm 1 m/S 751 mmHg 85%
23:00 +20°C° 0.1 mm 1 m/S 751 mmHg 87%

18 August, Dienstag

Zeit Temperatur Niederschläge Wind Luftdruck Luftfeuchtigkeit
00:00 +20°C° 0.1 mm 1 m/S 751 mmHg 89%
01:00 +19°C° 0.1 mm 1 m/S 750 mmHg 91%
02:00 +19°C° 0 mm 1 m/S 750 mmHg 92%
03:00 +19°C° 0 mm 1 m/S 750 mmHg 93%
04:00 +18°C° 0 mm 1 m/S 750 mmHg 93%
05:00 +20°C° 0.1 mm 1 m/S 750 mmHg 89%
06:00 +20°C° 0.1 mm 2 m/S 750 mmHg 85%
07:00 +21°C° 0.1 mm 2 m/S 750 mmHg 81%
08:00 +24°C° 0.1 mm 2 m/S 750 mmHg 75%
09:00 +25°C° 0.1 mm 2 m/S 750 mmHg 69%
10:00 +27°C° 0.1 mm 2 m/S 750 mmHg 63%
11:00 +28°C° 0.2 mm 2 m/S 749 mmHg 58%
12:00 +29°C° 0.2 mm 2 m/S 749 mmHg 54%
13:00 +30°C° 0.2 mm 2 m/S 749 mmHg 49%
14:00 +30°C° 0.1 mm 2 m/S 748 mmHg 49%
15:00 +30°C° 0.1 mm 2 m/S 748 mmHg 49%
16:00 +30°C° 0.1 mm 3 m/S 748 mmHg 50%
17:00 +28°C° 0 mm 2 m/S 748 mmHg 55%
18:00 +26°C° 0 mm 1 m/S 748 mmHg 60%
19:00 +24°C° 0 mm 1 m/S 748 mmHg 66%
20:00 +23°C° 0 mm 1 m/S 748 mmHg 69%
21:00 +22°C° 0 mm 1 m/S 748 mmHg 71%
22:00 +22°C° 0 mm 1 m/S 748 mmHg 74%
23:00 +21°C° 0 mm 1 m/S 748 mmHg 76%
Mehr zeigen